This demonstration page uses our WeatherBlox Daily Observations layout. Learn more.

Left ArrowRight Arrow

Hourly Observations for March 6, 2021

Temp ( °F °C ) Dew Point ( °F °C ) Humidity (%) Winds ( mph kmh ) Pressure ( in mb ) Visibility ( mi km ) Precip ( " mm )
12:54 am 00:54 Clear 33 0.6 26 -3.3 75 75 N N/A 30.27 1025 10 16 N/A
1:54 am 01:54 Clear 29 -1.7 24 -4.4 82 82 N N/A 30.27 1025 10 16 N/A
2:54 am 02:54 Clear 27 -2.8 22 -5.6 81 81 N N/A 30.26 1025 10 16 N/A
3:54 am 03:54 Clear 30 -1.1 23 -5 75 75 N N/A 30.25 1024 10 16 N/A
4:54 am 04:54 Clear 25 -3.9 22 -5.6 88 88 N N/A 30.27 1025 10 16 N/A
5:54 am 05:54 Clear 28 -2.2 22 -5.6 78 78 N N/A 30.26 1025 10 16 N/A
6:54 am 06:54 Sunny 27 -2.8 22 -5.6 81 81 N N/A 30.26 1025 10 16 N/A
7:54 am 07:54 Sunny 32 undefined 26 -3.3 79 79 N N/A 30.26 1025 10 16 N/A
8:54 am 08:54 Sunny 41 5 33 0.6 73 73 SE 5 7 30.27 1025 8 13 N/A
9:54 am 09:54 Sunny 48 8.9 35 1.7 61 61 SE 6 9 30.27 1025 8 13 N/A
10:54 am 10:54 Sunny 58 14.4 39 3.9 50 50 SSE 7 11 30.24 1024 10 16 N/A
11:54 am 11:54 Sunny 64 17.8 39 3.9 40 40 S 10 17 30.22 1023 10 16 N/A
12:54 pm 12:54 Sunny 68 20 36 2.2 31 31 S 12 19 30.18 1022 10 16 N/A
1:54 pm 13:54 Sunny 69 20.6 33 0.6 26 26 SSW 9 15 30.15 1021 10 16 N/A
2:54 pm 14:54 Sunny 70 21.1 33 0.6 26 26 SSW 9 15 30.13 1020 10 16 N/A
3:54 pm 15:54 Sunny 70 21.1 32 undefined 25 25 SW 14 22 30.11 1020 10 16 N/A
4:54 pm 16:54 Sunny 68 20 32 undefined 26 26 S 15 24 30.10 1019 10 16 N/A
5:54 pm 17:54 Sunny 63 17.2 32 undefined 31 31 S 10 17 30.10 1019 10 16 N/A
6:54 pm 18:54 Clear 53 11.7 32 undefined 45 45 S 9 15 30.11 1020 10 16 N/A
7:54 pm 19:54 Clear 50 10 33 0.6 52 52 S 8 13 30.12 1020 10 16 N/A
8:54 pm 20:54 Clear 47 8.3 34 1.1 61 61 S 9 15 30.13 1020 10 16 N/A
9:54 pm 21:54 Clear 43 6.1 32 undefined 65 65 S 13 20 30.13 1020 10 16 N/A
10:54 pm 22:54 Clear 49 9.4 36 2.2 61 61 S 12 19 30.13 1020 10 16 N/A
11:54 pm 23:54 Clear 46 7.8 36 2.2 68 68 S 12 19 30.13 1020 10 16 N/A

Powered by AerisWeather